Regional Weather Roundup
Issued by NWS

Home | Current Version | Previous Version | Text Only | Print | Product List | Glossary On
Versions: 1 2 3 4 5 6 7 8 9 10 11 12 13 14 15 16 17 18 19 20 21 22 23 24 25 26 27 28 29 30 31 32 33 34 35 36 37 38 39 40 41 42 43 44 45 46 47 48 49 50
765
ASUS45 KTFX 032210
RWRMT
MONTANA REGIONAL WEATHER ROUNDUP
NATIONAL WEATHER SERVICE GREAT FALLS MT
400 PM MDT TUE MAY 03 2016

NOTE: "FAIR" INDICATES FEW OR NO CLOUDS BELOW 12000 FEET WITH NO
SIGNIFICANT WEATHER AND/OR OBSTRUCTIONS TO VISIBILITY.

MTZ001>007-043-032300-
WEST OF THE DIVIDE

CITY           SKY/WX    TMP DP  RH WIND       PRES   REMARKS
KALISPELL      SUNNY     77  39  25 S8        30.05F
MISSOULA       SUNNY     81  29  15 CALM      30.06F
BUTTE          SUNNY     71  26  18 S8        30.16F
MULLAN PASS    PTSUNNY   64  29  26 SW5       30.20F
$$

MTZ008-052>055-032300-
SOUTHWEST MONTANA

CITY           SKY/WX    TMP DP  RH WIND       PRES   REMARKS
BOZEMAN        SUNNY     76  31  19 N8        30.14F
DILLON         SUNNY     74  25  16 SW9       30.14F
ENNIS          SUNNY     73  28  19 VRB5G13   30.21F
$$

MTZ009-010-012-014-046-048-049-054-032300-
EAST SLOPES AND CENTRAL MONTANA

CITY           SKY/WX    TMP DP  RH WIND       PRES   REMARKS
CUT BANK         N/A     77  30  17 SW9       30.05F
GREAT FALLS    SUNNY     78  31  17 W6        30.07F
MALMSTROM AFB  SUNNY     76  30  18 S2        30.07F
HELENA         SUNNY     80  31  16 VRB5      30.09F
$$

MTZ011-013-016-021-045-047-050-051-032300-
NORTH CENTRAL MONTANA

CITY           SKY/WX    TMP DP  RH WIND       PRES   REMARKS
HAVRE          SUNNY     78  45  30 SW3       30.04F
LEWISTOWN      SUNNY     77  27  15 CALM      30.11F
N BAR RANCH      N/A     73  36  25 E13       30.15F
$$

MTZ017>020-022>027-061-062-032300-
NORTHEAST MONTANA

CITY           SKY/WX    TMP DP  RH WIND       PRES   REMARKS
GLASGOW        SUNNY     80  39  23 NW9       30.05F
JORDAN           N/A     79  38  22 VRB5      30.08F
SIDNEY         SUNNY     79  37  22 N12G18    30.04F
WOLF POINT     SUNNY     82  37  20 VRB3      30.04F
$$

MTZ028>42-056>058-032300-
SOUTHCENTRAL AND SOUTHEAST MONTANA

CITY           SKY/WX    TMP DP  RH WIND       PRES   REMARKS
BAKER          SUNNY     76  34  21 N13       30.09F
BILLINGS       MOSUNNY   76  33  21 E6        30.12F
LIVINGSTON     SUNNY     77  28  16 W8        30.12F
MILES CITY     SUNNY     79  34  19 NW14      30.07F
$$

REGIONAL REPORTS...DAKOTAS

CITY           SKY/WX    TMP DP  RH WIND       PRES   REMARKS
WILLISTON      SUNNY     81  39  22 N10       30.03S
MINOT          SUNNY     79  28  15 N18G29    29.99F
DICKINSON      SUNNY     76  35  22 N16G28    30.02F
BEACH            N/A     75  32  20 N12G20    30.10F
CROSBY           N/A     77  36  22 N16G25    30.05S
TIOGA            N/A     77  36  22 NE18      30.08F
WATFORD CITY     N/A     79  37  22 N8G17     30.03S
BISMARCK       SUNNY     75  35  23 N18G28    29.97S
GRAND FORKS    SUNNY     66  31  27 N23G39    29.89S
FARGO          SUNNY     69  27  20 N32G40    29.86R
BUFFALO SD       N/A     76  33  21 N13       30.01S
RAPID CITY     SUNNY     73  39  29 N17G26    30.07F
$$

REGIONAL REPORTS...WYOMING/IDAHO/WASHINGTON

CITY           SKY/WX    TMP DP  RH WIND       PRES   REMARKS
GILLETTE       MOSUNNY   70  39  32 NW8       30.15F
SHERIDAN       SUNNY     73  36  25 CALM      30.14F
BUFFALO WY     SUNNY     70  32  24 NW9       30.19F
CODY           SUNNY     72  30  21 S7        30.16F
YELLOWSTONE LA   N/A     53  22  29 VRB7      30.34F
IDAHO FALLS    SUNNY     71  26  18 CALM      30.19F
SALMON         SUNNY     75  30  19 NW3       30.07F
BOISE          SUNNY     78  28  16 SE9       30.07F
SPOKANE        MOSUNNY   82  32  16 S12G18    30.02F
$$

REGIONAL REPORTS...ALBERTA

CITY           SKY/WX    TMP DP  RH WIND       PRES   REMARKS
EDMONTON       MOSUNNY   86  32  14 SW9       29.88F
CALGARY        MOSUNNY   81  28  15 S10       29.98F
LETHBRIDGE     SUNNY     84  28  13 W16G24    29.98F
MEDICINE HAT   MOSUNNY   82  37  20 SE10      29.98F
WATERTON GATE    N/A     77  27  15 SW16G23     N/A
MILK RIVER       N/A     79  34  19 SW6         N/A
ONEFOUR          N/A     77  34  20 S9          N/A
$$

REGIONAL REPORTS...SASKATCHEWAN

CITY           SKY/WX    TMP DP  RH WIND       PRES   REMARKS
SWIFT CURRENT  MOSUNNY   81  36  19 S6        30.02F
REGINA         MOSUNNY   81  37  21 NE5       30.02F
SASKATOON      PTSUNNY   84  37  18 W9        29.98F
CYPRESS HILLS    N/A     73  36  25 S9          N/A
VAL MARIE        N/A     77  32  19 SE3         N/A
ROCKGLEN         N/A     77  34  20 E5          N/A
$$




USA.gov is the U.S. government's official web portal to all federal, state and local government web resources and services.